This is the latest recevied weather packets stored in our database for station/object K5SVV. If no packets are shown the sender has not sent any weather packets the latest 10 day(s).
| Time | Temp. | Humidity | Pressure | Rain* | Wind** | Luminosity | Snow |
|---|---|---|---|---|---|---|---|
| 1777821843 | 21.11° C | 59% | 1021.2 hPa | 0 mm | - | 769 W/m² | - |
| 1777821540 | 21.11° C | 61% | 1021.1 hPa | 0 mm | - | 741 W/m² | - |
| 1777821239 | 20.56° C | 64% | 1021.2 hPa | 0 mm | - | 711 W/m² | - |
| 1777820935 | 20.56° C | 64% | 1021.1 hPa | 0 mm | - | 664 W/m² | - |
| 1777820631 | 20.56° C | 66% | 1021.1 hPa | 0 mm | - | 636 W/m² | - |
| 1777820328 | 20° C | 65% | 1021.3 hPa | 0 mm | - | 622 W/m² | - |
| 1777820026 | 20° C | 64% | 1021.1 hPa | 0 mm | - | 585 W/m² | - |
| 1777819722 | 20° C | 65% | 1021.1 hPa | 0 mm | - | 547 W/m² | - |
| 1777819421 | 19.44° C | 65% | 1021.2 hPa | 0 mm | - | 551 W/m² | - |
| 1777819118 | 19.44° C | 65% | 1021 hPa | 0 mm | - | 539 W/m² | - |
| 1777818814 | 19.44° C | 65% | 1021 hPa | 0 mm | - | 531 W/m² | - |
| 1777818510 | 18.89° C | 65% | 1020.9 hPa | 0 mm | - | 459 W/m² | - |
| 1777818208 | 18.89° C | 65% | 1021.2 hPa | 0 mm | - | 461 W/m² | - |
| 1777817904 | 18.89° C | 66% | 1021.3 hPa | 0 mm | - | 442 W/m² | - |
| 1777817602 | 18.33° C | 66% | 1021 hPa | 0 mm | - | 393 W/m² | - |
| 1777817298 | 18.33° C | 67% | 1021.1 hPa | 0 mm | - | 393 W/m² | - |
| 1777816995 | 18.33° C | 66% | 1021.1 hPa | 0 mm | - | 356 W/m² | - |
| 1777816691 | 18.33° C | 66% | 1020.8 hPa | 0 mm | - | 337 W/m² | - |
| 1777816389 | 17.78° C | 69% | 1020.9 hPa | 0 mm | - | 318 W/m² | - |
| 1777816087 | 17.78° C | 69% | 1020.9 hPa | 0 mm | - | 298 W/m² | - |
| 1777815784 | 17.78° C | 69% | 1020.7 hPa | 0 mm | - | 291 W/m² | - |
| 1777815481 | 17.22° C | 68% | 1020.7 hPa | 0 mm | - | 250 W/m² | - |
| 1777815179 | 17.22° C | 68% | 1020.8 hPa | 0 mm | - | 232 W/m² | - |
| 1777814875 | 17.22° C | 69% | 1020.9 hPa | 0 mm | - | 223 W/m² | - |
| 1777814571 | 16.67° C | 71% | 1020.8 hPa | 0 mm | - | 217 W/m² | - |
* Rain latest hour (hover to see other rain measurements)
** Current wind speed in m/s (hover to see current wind gust speed)